TAM3276 SGAS-SBCT

Flight info

Callsign TAM3276
Flight time 1h 7m
Altitude 37000
Route ROLOK ROLOK UM548 PUNTO
Aircraft A346/H-SDE2E3FGHIJ3J4J5M1RWXY/LB1D1

Departure

Time 2026-04-29 23:56
Airport Silvio Pettirossi International Airport (SGAS)

Arrival

Time 2026-04-30 01:03
Airport Curitiba-Afonso Pena International Airport (SBCT)
Time Latitude Longitude Altitude Speed Heading
2026-04-29 23:26 -25.24229 -57.51569 300 ft 0 kts 103°
2026-04-29 23:46 -25.24227 -57.51582 287 ft 0 kts 102°
2026-04-29 23:46 -25.24220 -57.51608 289 ft 0 kts 112°
2026-04-29 23:46 -25.24209 -57.51622 292 ft 0 kts 153°
2026-04-29 23:46 -25.24191 -57.51624 293 ft 0 kts 192°
2026-04-29 23:47 -25.24178 -57.51618 295 ft 0 kts 216°
2026-04-29 23:50 -25.24188 -57.51625 298 ft 3 kts 208°
2026-04-29 23:51 -25.24232 -57.51642 290 ft 10 kts 197°
2026-04-29 23:51 -25.24292 -57.51684 290 ft 11 kts 243°
2026-04-29 23:51 -25.24331 -57.51766 287 ft 13 kts 217°
2026-04-29 23:51 -25.24425 -57.51800 288 ft 16 kts 192°
2026-04-29 23:52 -25.24541 -57.51829 287 ft 19 kts 192°
2026-04-29 23:52 -25.24678 -57.51862 287 ft 21 kts 192°
2026-04-29 23:52 -25.24832 -57.51900 288 ft 24 kts 192°
2026-04-29 23:52 -25.24985 -57.51936 289 ft 17 kts 192°
2026-04-29 23:53 -25.25109 -57.51965 288 ft 19 kts 192°
2026-04-29 23:53 -25.25250 -57.51999 292 ft 22 kts 192°
2026-04-29 23:53 -25.25384 -57.52030 290 ft 16 kts 192°
2026-04-29 23:53 -25.25453 -57.52052 288 ft 8 kts 214°
2026-04-29 23:54 -25.25476 -57.52111 292 ft 9 kts 266°
2026-04-29 23:54 -25.25472 -57.52181 293 ft 8 kts 275°
2026-04-29 23:54 -25.25464 -57.52238 297 ft 7 kts 285°
2026-04-29 23:54 -25.25424 -57.52257 300 ft 9 kts 360°
2026-04-29 23:55 -25.25386 -57.52251 297 ft 0 kts 10°
2026-04-29 23:55 -25.25379 -57.52249 298 ft 8 kts 10°
2026-04-29 23:55 -25.25056 -57.52171 295 ft 87 kts 13°
2026-04-29 23:55 -25.24224 -57.51968 294 ft 154 kts 12°
2026-04-29 23:56 -25.23005 -57.51686 447 ft 193 kts 12°
2026-04-29 23:56 -25.21206 -57.51279 1360 ft 204 kts 12°
2026-04-29 23:56 -25.20277 -57.51071 1874 ft 209 kts 12°
2026-04-29 23:56 -25.18844 -57.50719 2704 ft 214 kts 13°
2026-04-29 23:57 -25.17345 -57.50323 3309 ft 230 kts 12°
2026-04-29 23:57 -25.15708 -57.49905 3857 ft 251 kts 11°
2026-04-29 23:57 -25.13938 -57.49444 4513 ft 270 kts 17°
2026-04-29 23:57 -25.12314 -57.48343 5321 ft 282 kts 46°
2026-04-29 23:58 -25.11383 -57.46434 6282 ft 288 kts 76°
2026-04-29 23:58 -25.11426 -57.44212 7113 ft 295 kts 108°
2026-04-29 23:58 -25.12500 -57.42267 7959 ft 296 kts 135°
2026-04-29 23:58 -25.13935 -57.40658 8819 ft 299 kts 137°
2026-04-29 23:59 -25.15426 -57.39013 9650 ft 304 kts 136°
2026-04-29 23:59 -25.16774 -57.37175 10353 ft 311 kts 123°
2026-04-29 23:59 -25.17735 -57.34967 10806 ft 328 kts 109°
2026-04-29 23:59 -25.18391 -57.32513 11168 ft 346 kts 105°
2026-04-30 00:00 -25.19015 -57.29866 11536 ft 364 kts 105°
2026-04-30 00:00 -25.19664 -57.27087 11856 ft 382 kts 105°
2026-04-30 00:00 -25.20356 -57.24175 12270 ft 396 kts 105°
2026-04-30 00:00 -25.21072 -57.21202 12971 ft 401 kts 106°
2026-04-30 00:01 -25.21789 -57.18241 13700 ft 404 kts 107°
2026-04-30 00:01 -25.22529 -57.15214 14311 ft 409 kts 107°
2026-04-30 00:01 -25.23279 -57.12161 14907 ft 414 kts 107°
2026-04-30 00:01 -25.24039 -57.09067 15525 ft 418 kts 107°
2026-04-30 00:02 -25.24805 -57.05945 16152 ft 422 kts 107°
2026-04-30 00:02 -25.25570 -57.02822 16766 ft 426 kts 107°
2026-04-30 00:02 -25.26350 -56.99630 17397 ft 431 kts 107°
2026-04-30 00:02 -25.27137 -56.96405 17958 ft 437 kts 107°
2026-04-30 00:03 -25.27938 -56.93118 18450 ft 444 kts 107°
2026-04-30 00:03 -25.28735 -56.89844 18963 ft 448 kts 107°
2026-04-30 00:03 -25.29548 -56.86500 19519 ft 451 kts 107°
2026-04-30 00:03 -25.30365 -56.83132 20070 ft 455 kts 106°
2026-04-30 00:04 -25.31190 -56.79736 20621 ft 458 kts 106°
2026-04-30 00:04 -25.32020 -56.76309 21162 ft 462 kts 106°
2026-04-30 00:04 -25.32855 -56.72854 21699 ft 466 kts 106°
2026-04-30 00:04 -25.33697 -56.69370 22258 ft 469 kts 106°
2026-04-30 00:05 -25.34546 -56.65857 22783 ft 474 kts 107°
2026-04-30 00:05 -25.35347 -56.62288 23244 ft 480 kts 104°
2026-04-30 00:05 -25.35970 -56.58689 23701 ft 485 kts 100°
2026-04-30 00:05 -25.36445 -56.54961 24150 ft 489 kts 98°
2026-04-30 00:06 -25.36873 -56.51217 24650 ft 491 kts 98°
2026-04-30 00:06 -25.37292 -56.47444 25166 ft 493 kts 97°
2026-04-30 00:06 -25.37712 -56.43662 25661 ft 495 kts 97°
2026-04-30 00:06 -25.38130 -56.39911 26132 ft 498 kts 97°
2026-04-30 00:07 -25.38559 -56.36084 26612 ft 501 kts 97°
2026-04-30 00:07 -25.38993 -56.32221 27089 ft 505 kts 97°
2026-04-30 00:07 -25.39430 -56.28348 27563 ft 508 kts 97°
2026-04-30 00:07 -25.39869 -56.24441 28030 ft 511 kts 97°
2026-04-30 00:08 -25.40307 -56.20535 28674 ft 510 kts 97°
2026-04-30 00:08 -25.40737 -56.16685 29418 ft 507 kts 97°
2026-04-30 00:08 -25.41170 -56.12806 30157 ft 505 kts 97°
2026-04-30 00:08 -25.41600 -56.08949 30744 ft 504 kts 97°
2026-04-30 00:09 -25.42024 -56.05131 31245 ft 505 kts 96°
2026-04-30 00:09 -25.42454 -56.01253 31704 ft 506 kts 96°
2026-04-30 00:09 -25.42883 -55.97367 32229 ft 507 kts 96°
2026-04-30 00:09 -25.43309 -55.93491 32817 ft 505 kts 96°
2026-04-30 00:10 -25.43735 -55.89611 33376 ft 505 kts 96°
2026-04-30 00:10 -25.44158 -55.85744 33863 ft 505 kts 95°
2026-04-30 00:10 -25.44574 -55.81917 34300 ft 506 kts 95°
2026-04-30 00:10 -25.44995 -55.78029 34666 ft 508 kts 95°
2026-04-30 00:11 -25.45421 -55.74114 34989 ft 511 kts 95°
2026-04-30 00:11 -25.45845 -55.70194 35275 ft 514 kts 95°
2026-04-30 00:11 -25.46275 -55.66236 35570 ft 517 kts 95°
2026-04-30 00:11 -25.46706 -55.62262 35860 ft 520 kts 95°
2026-04-30 00:12 -25.47133 -55.58320 36144 ft 523 kts 95°
2026-04-30 00:12 -25.47567 -55.54296 36410 ft 525 kts 95°
2026-04-30 00:12 -25.48000 -55.50260 36656 ft 528 kts 95°
2026-04-30 00:12 -25.48436 -55.46191 36859 ft 532 kts 95°
2026-04-30 00:13 -25.48870 -55.42110 37008 ft 535 kts 95°
2026-04-30 00:13 -25.49734 -55.33969 37007 ft 534 kts 95°
2026-04-30 00:14 -25.50596 -55.25791 36995 ft 530 kts 95°
2026-04-30 00:14 -25.51452 -55.17648 37005 ft 532 kts 95°
2026-04-30 00:15 -25.52297 -55.09535 37005 ft 532 kts 95°
2026-04-30 00:15 -25.53144 -55.01365 37005 ft 532 kts 95°
2026-04-30 00:16 -25.53991 -54.93162 37003 ft 534 kts 94°
2026-04-30 00:16 -25.54827 -54.85007 37010 ft 535 kts 94°
2026-04-30 00:17 -25.55661 -54.76814 37006 ft 535 kts 94°
2026-04-30 00:17 -25.56495 -54.68590 36998 ft 537 kts 94°
2026-04-30 00:18 -25.57317 -54.60395 37011 ft 535 kts 94°
2026-04-30 00:18 -25.58132 -54.52220 36991 ft 532 kts 93°
2026-04-30 00:19 -25.58449 -54.44001 36987 ft 533 kts 87°
2026-04-30 00:19 -25.58486 -54.35766 37012 ft 532 kts 87°
2026-04-30 00:20 -25.58518 -54.27611 37011 ft 532 kts 87°
2026-04-30 00:20 -25.58564 -54.19373 37004 ft 535 kts 87°
2026-04-30 00:21 -25.58610 -54.11106 37011 ft 536 kts 87°
2026-04-30 00:21 -25.58651 -54.02880 37011 ft 536 kts 86°
2026-04-30 00:22 -25.58689 -53.94604 37005 ft 537 kts 86°
2026-04-30 00:22 -25.58719 -53.86276 37012 ft 538 kts 86°
2026-04-30 00:23 -25.58744 -53.77974 37060 ft 536 kts 86°
2026-04-30 00:23 -25.58794 -53.69759 37020 ft 535 kts 86°
2026-04-30 00:24 -25.58855 -53.61467 37022 ft 536 kts 86°
2026-04-30 00:24 -25.58904 -53.53228 37025 ft 536 kts 86°
2026-04-30 00:25 -25.58946 -53.44935 37028 ft 536 kts 86°
2026-04-30 00:25 -25.58983 -53.36716 37035 ft 536 kts 86°
2026-04-30 00:26 -25.59016 -53.28417 37038 ft 536 kts 86°
2026-04-30 00:26 -25.59044 -53.20120 37025 ft 537 kts 86°
2026-04-30 00:27 -25.59062 -53.11871 37039 ft 538 kts 86°
2026-04-30 00:27 -25.59080 -53.03570 37038 ft 538 kts 86°
2026-04-30 00:28 -25.59103 -52.95241 37048 ft 540 kts 86°
2026-04-30 00:28 -25.59115 -52.86969 37054 ft 538 kts 86°
2026-04-30 00:29 -25.59121 -52.78651 37040 ft 537 kts 86°
2026-04-30 00:29 -25.59123 -52.70398 37038 ft 539 kts 85°
2026-04-30 00:30 -25.59118 -52.62059 37052 ft 539 kts 85°
2026-04-30 00:30 -25.59107 -52.53731 37054 ft 539 kts 85°
2026-04-30 00:31 -25.59094 -52.45437 37053 ft 539 kts 85°
2026-04-30 00:31 -25.59075 -52.37071 37058 ft 540 kts 85°
2026-04-30 00:32 -25.59051 -52.28736 37056 ft 540 kts 85°
2026-04-30 00:32 -25.59024 -52.20466 37058 ft 540 kts 85°
2026-04-30 00:33 -25.58990 -52.12096 37068 ft 540 kts 85°
2026-04-30 00:33 -25.58952 -52.03797 37052 ft 540 kts 84°
2026-04-30 00:34 -25.58912 -51.95447 37072 ft 540 kts 84°
2026-04-30 00:34 -25.58862 -51.87099 37068 ft 540 kts 84°
2026-04-30 00:35 -25.58808 -51.78747 37070 ft 540 kts 84°
2026-04-30 00:35 -25.58750 -51.70469 37078 ft 540 kts 85°
2026-04-30 00:36 -25.58690 -51.62119 37081 ft 540 kts 84°
2026-04-30 00:36 -25.58621 -51.53774 37076 ft 539 kts 85°
2026-04-30 00:37 -25.58548 -51.45444 37088 ft 539 kts 85°
2026-04-30 00:37 -25.58473 -51.37170 37086 ft 539 kts 85°
2026-04-30 00:38 -25.58401 -51.28848 37102 ft 539 kts 84°
2026-04-30 00:38 -25.58321 -51.20525 37089 ft 539 kts 84°
2026-04-30 00:39 -25.58232 -51.12252 37088 ft 539 kts 84°
2026-04-30 00:39 -25.58137 -51.03927 37095 ft 539 kts 84°
2026-04-30 00:40 -25.58042 -50.95602 37089 ft 539 kts 84°
2026-04-30 00:40 -25.57942 -50.87259 37075 ft 538 kts 84°
2026-04-30 00:41 -25.57834 -50.78999 37094 ft 539 kts 84°
2026-04-30 00:41 -25.57722 -50.70708 36441 ft 535 kts 84°
2026-04-30 00:41 -25.57660 -50.66540 35405 ft 545 kts 84°
2026-04-30 00:42 -25.57596 -50.62306 34644 ft 549 kts 84°
2026-04-30 00:42 -25.57533 -50.58064 34100 ft 548 kts 84°
2026-04-30 00:42 -25.57492 -50.55274 33706 ft 546 kts 84°
2026-04-30 00:42 -25.57408 -50.49699 32889 ft 545 kts 84°
2026-04-30 00:43 -25.57342 -50.45477 32204 ft 545 kts 84°
2026-04-30 00:43 -25.57271 -50.41272 31275 ft 544 kts 85°
2026-04-30 00:43 -25.57223 -50.38490 30390 ft 544 kts 85°
2026-04-30 00:43 -25.57148 -50.34288 28942 ft 543 kts 86°
2026-04-30 00:44 -25.57076 -50.30121 27525 ft 539 kts 87°
2026-04-30 00:44 -25.57005 -50.25974 26224 ft 534 kts 88°
2026-04-30 00:44 -25.56937 -50.21909 25467 ft 517 kts 88°
2026-04-30 00:44 -25.56871 -50.17974 24497 ft 506 kts 88°
2026-04-30 00:45 -25.56805 -50.14132 23419 ft 499 kts 88°
2026-04-30 00:45 -25.56776 -50.09019 21860 ft 489 kts 94°
2026-04-30 00:45 -25.57110 -50.06561 21124 ft 483 kts 105°
2026-04-30 00:45 -25.58312 -50.03105 20555 ft 472 kts 120°
2026-04-30 00:46 -25.60027 -50.00085 20150 ft 465 kts 127°
2026-04-30 00:46 -25.61876 -49.97155 19681 ft 461 kts 128°
2026-04-30 00:46 -25.63718 -49.94260 19230 ft 457 kts 127°
2026-04-30 00:46 -25.65535 -49.91368 18781 ft 454 kts 127°
2026-04-30 00:47 -25.67326 -49.88482 18336 ft 451 kts 126°
2026-04-30 00:47 -25.69074 -49.85641 17842 ft 448 kts 126°
2026-04-30 00:47 -25.70822 -49.82785 17391 ft 443 kts 126°
2026-04-30 00:47 -25.72548 -49.79961 16950 ft 439 kts 126°
2026-04-30 00:48 -25.74256 -49.77164 16519 ft 435 kts 126°
2026-04-30 00:48 -25.75926 -49.74425 16151 ft 429 kts 126°
2026-04-30 00:48 -25.77576 -49.71721 16112 ft 413 kts 126°
2026-04-30 00:48 -25.79160 -49.69118 16111 ft 397 kts 126°
2026-04-30 00:49 -25.80680 -49.66621 15983 ft 386 kts 126°
2026-04-30 00:49 -25.82192 -49.64143 15427 ft 388 kts 126°
2026-04-30 00:49 -25.83714 -49.61649 14944 ft 389 kts 126°
2026-04-30 00:49 -25.85212 -49.59190 14501 ft 389 kts 126°
2026-04-30 00:50 -25.86726 -49.56701 14067 ft 387 kts 126°
2026-04-30 00:50 -25.88232 -49.54222 13511 ft 383 kts 126°
2026-04-30 00:50 -25.89696 -49.51807 13084 ft 367 kts 126°
2026-04-30 00:50 -25.91090 -49.49508 12729 ft 350 kts 126°
2026-04-30 00:51 -25.92409 -49.47329 12370 ft 336 kts 127°
2026-04-30 00:51 -25.93691 -49.45213 12023 ft 323 kts 127°
2026-04-30 00:51 -25.94941 -49.43136 11686 ft 321 kts 124°
2026-04-30 00:51 -25.95763 -49.40826 11256 ft 325 kts 98°
2026-04-30 00:52 -25.95676 -49.38338 10912 ft 320 kts 72°
2026-04-30 00:52 -25.94762 -49.36210 10882 ft 298 kts 48°
2026-04-30 00:52 -25.93417 -49.34571 10904 ft 280 kts 39°
2026-04-30 00:52 -25.92016 -49.33076 10912 ft 278 kts 38°
2026-04-30 00:53 -25.90623 -49.31595 10918 ft 270 kts 38°
2026-04-30 00:53 -25.89280 -49.30138 10707 ft 268 kts 39°
2026-04-30 00:53 -25.87977 -49.28697 10433 ft 266 kts 40°
2026-04-30 00:53 -25.86680 -49.27242 10199 ft 262 kts 40°
2026-04-30 00:54 -25.85411 -49.25808 9943 ft 258 kts 40°
2026-04-30 00:54 -25.84158 -49.24391 9603 ft 254 kts 40°
2026-04-30 00:54 -25.82950 -49.23021 9424 ft 248 kts 40°
2026-04-30 00:54 -25.81784 -49.21692 9400 ft 232 kts 40°
2026-04-30 00:55 -25.80675 -49.20431 9396 ft 227 kts 39°
2026-04-30 00:55 -25.79568 -49.19180 9411 ft 223 kts 39°
2026-04-30 00:55 -25.77532 -49.16872 9388 ft 199 kts 39°
2026-04-30 00:56 -25.76566 -49.15781 9409 ft 197 kts 38°
2026-04-30 00:56 -25.75614 -49.14710 9419 ft 197 kts 38°
2026-04-30 00:56 -25.74653 -49.13626 9424 ft 197 kts 38°
2026-04-30 00:56 -25.73691 -49.12540 9430 ft 196 kts 39°
2026-04-30 00:57 -25.72735 -49.11458 9428 ft 196 kts 38°
2026-04-30 00:57 -25.71784 -49.10404 9323 ft 189 kts 36°
2026-04-30 00:57 -25.70835 -49.09392 8865 ft 190 kts 36°
2026-04-30 00:57 -25.69873 -49.08379 8413 ft 192 kts 36°
2026-04-30 00:58 -25.68907 -49.07351 7972 ft 192 kts 35°
2026-04-30 00:58 -25.67950 -49.06332 7558 ft 189 kts 36°
2026-04-30 00:58 -25.67012 -49.05338 7103 ft 187 kts 32°
2026-04-30 00:58 -25.65939 -49.04675 6644 ft 170 kts
2026-04-30 00:59 -25.64811 -49.04678 6109 ft 160 kts 337°
2026-04-30 00:59 -25.63819 -49.05234 5510 ft 162 kts 319°
2026-04-30 00:59 -25.62991 -49.06093 5222 ft 162 kts 313°
2026-04-30 00:59 -25.62258 -49.06953 5110 ft 143 kts 313°
2026-04-30 01:00 -25.61580 -49.07746 5112 ft 141 kts 313°
2026-04-30 01:00 -25.60901 -49.08525 5052 ft 143 kts 312°
2026-04-30 01:00 -25.60207 -49.09311 4868 ft 142 kts 313°
2026-04-30 01:00 -25.59514 -49.10090 4668 ft 142 kts 313°
2026-04-30 01:01 -25.58814 -49.10876 4490 ft 143 kts 313°
2026-04-30 01:01 -25.58107 -49.11669 4302 ft 145 kts 314°
2026-04-30 01:01 -25.57389 -49.12475 4121 ft 148 kts 315°
2026-04-30 01:01 -25.56663 -49.13290 3924 ft 148 kts 314°
2026-04-30 01:02 -25.55950 -49.14103 3642 ft 150 kts 313°
2026-04-30 01:02 -25.55232 -49.14952 3408 ft 151 kts 313°
2026-04-30 01:02 -25.54492 -49.15789 3315 ft 152 kts 318°
2026-04-30 01:02 -25.53729 -49.16612 3110 ft 152 kts 317°
2026-04-30 01:03 -25.53030 -49.17376 3001 ft 117 kts 314°
2026-04-30 01:03 -25.52636 -49.17810 2996 ft 43 kts 315°
2026-04-30 01:03 -25.52528 -49.17946 3000 ft 14 kts 278°
2026-04-30 01:03 -25.52596 -49.17999 2999 ft 15 kts 185°
2026-04-30 01:04 -25.52715 -49.18000 2995 ft 19 kts 179°
2026-04-30 01:04 -25.52859 -49.17979 2993 ft 21 kts 150°
2026-04-30 01:04 -25.52954 -49.17886 2994 ft 16 kts 122°
2026-04-30 01:04 -25.52978 -49.17761 2994 ft 18 kts 93°
2026-04-30 01:05 -25.52992 -49.17636 2997 ft 12 kts 118°
2026-04-30 01:05 -25.53046 -49.17559 2999 ft 13 kts 133°
2026-04-30 01:05 -25.53114 -49.17488 3000 ft 14 kts 139°
2026-04-30 01:05 -25.53195 -49.17410 3001 ft 17 kts 138°
2026-04-30 01:06 -25.53270 -49.17344 3002 ft 12 kts 149°
2026-04-30 01:06 -25.53336 -49.17315 3001 ft 6 kts 181°
2026-04-30 01:06 -25.53374 -49.17336 3001 ft 0 kts 215°
2026-04-30 01:06 -25.53376 -49.17338 3001 ft 1 kts 221°
2026-04-30 01:07 -25.53393 -49.17356 3003 ft 4 kts 223°
2026-04-30 01:07 -25.53414 -49.17379 3001 ft 0 kts 224°
2026-04-30 01:07 -25.53420 -49.17385 3001 ft 0 kts 224°
2026-04-30 01:07 -25.53421 -49.17386 3001 ft 0 kts 225°
2026-04-30 01:12 -25.53716 -49.17054 3001 ft 0 kts 225°
2026-04-30 01:13 -25.53871 -49.16881 3003 ft 0 kts 225°